Armorel, AR

1:30 AM CST on February 06, 2016 (GMT -0600)
Blytheville Municipal

Weather History for KHKA - March, 2014

Change the Weather History Date:

Monday, March 24, 2014

  Actual Average Record
Temperature  
Mean Temperature 40 °F -  
Max Temperature 52 °F 62 °F 84 °F (1939)
Min Temperature 28 °F 43 °F 22 °F (1940)
Degree Days  
Heating Degree Days 26    
Moisture  
Dew Point 21 °F    
Average Humidity 50    
Maximum Humidity 75    
Minimum Humidity 27    
Precipitation  
Precipitation 0.00 in - - ()
Sea Level Pressure  
Sea Level Pressure 30.25 in    
Wind  
Wind Speed 8 mph (NE)    
Max Wind Speed 14 mph    
Max Gust Speed 18 mph    
Visibility 10 miles    
Events      
Averages and records for this station are not official NWS values.
T = Trace of Precipitation, MM = Missing Value Source: NWS Daily Summary

Daily Weather History Graph

Daily Weather History Graph

Search for Another Location

Airport or City:

Trip Planner

Search our weather history database for the weather conditions in past years. The results will help you decide how hot, cold, wet, or windy it might be!

Date:

Astronomy

Mar. 24, 2014 Rise Set
Actual Time 6:57 AM CDT 7:14 PM CDT
Civil Twilight 6:31 AM CDT 7:40 PM CDT
Nautical Twilight 6:01 AM CDT 8:10 PM CDT
Astronomical Twilight 5:31 AM CDT 8:40 PM CDT
Moon 2:16 AM CDT (3/24) 12:50 PM CDT (3/24)
Length of Visible Light 13h 08m
Length of Day
12h 17m
Last Quarter, 43% of the Moon is Illuminated
Mar 24
Last Quarter
Mar 30
New
Apr 7
First Quarter
Apr 15
Full
Apr 22
Last Quarter

Hourly Weather History & Observations

Time (CDT) Temp. Windchill Dew Point Humidity Pressure Visibility Wind Dir Wind Speed Gust Speed Precip Events Conditions
12:53 AM 34.0 °F 26.6 °F 23.0 °F 64% 30.33 in 10.0 mi NE 9.2 mph - N/A   Clear
1:53 AM 34.0 °F 27.2 °F 23.0 °F 64% 30.32 in 10.0 mi NE 8.1 mph - N/A   Clear
2:53 AM 33.1 °F 26.1 °F 21.9 °F 64% 30.32 in 10.0 mi ENE 8.1 mph - N/A   Clear
3:53 AM 30.9 °F 23.5 °F 21.9 °F 69% 30.31 in 10.0 mi East 8.1 mph - N/A   Clear
4:53 AM 30.0 °F 25.2 °F 21.0 °F 69% 30.31 in 10.0 mi ENE 4.6 mph - N/A   Clear
5:53 AM 28.0 °F 20.8 °F 21.0 °F 75% 30.31 in 10.0 mi East 6.9 mph - N/A   Clear
6:53 AM 28.9 °F 22.8 °F 21.9 °F 75% 30.32 in 10.0 mi East 5.8 mph - N/A   Clear
7:53 AM 32.0 °F 25.6 °F 21.9 °F 66% 30.35 in 10.0 mi ENE 6.9 mph - N/A   Clear
8:53 AM 37.0 °F 28.5 °F 21.9 °F 54% 30.35 in 10.0 mi East 13.8 mph - N/A   Clear
9:53 AM 39.9 °F 32.9 °F 21.0 °F 47% 30.33 in 10.0 mi East 11.5 mph - N/A   Clear
10:53 AM 42.1 °F 35.7 °F 19.0 °F 40% 30.32 in 10.0 mi East 11.5 mph 18.4 mph N/A   Clear
11:53 AM 45.0 °F 39.7 °F 18.0 °F 34% 30.29 in 10.0 mi East 10.4 mph - N/A   Clear
12:53 PM 46.9 °F - 17.1 °F 30% 30.26 in 10.0 mi East 5.8 mph - N/A   Clear
1:53 PM 48.9 °F - 18.0 °F 29% 30.22 in 10.0 mi Variable 5.8 mph - N/A   Overcast
2:53 PM 51.1 °F - 19.9 °F 29% 30.17 in 10.0 mi NE 9.2 mph 17.3 mph N/A   Overcast
3:53 PM 48.9 °F - 16.0 °F 27% 30.14 in 10.0 mi Variable 3.5 mph - N/A   Overcast
4:53 PM 50.0 °F - 18.0 °F 28% 30.12 in 10.0 mi North 8.1 mph - N/A   Mostly Cloudy
5:53 PM 48.0 °F - 19.9 °F 33% 30.12 in 10.0 mi North 11.5 mph - N/A   Partly Cloudy
6:53 PM 46.0 °F 39.9 °F 23.0 °F 40% 30.14 in 10.0 mi North 13.8 mph - N/A   Mostly Cloudy
7:53 PM 44.1 °F 38.1 °F 24.1 °F 45% 30.15 in 10.0 mi North 11.5 mph - N/A   Mostly Cloudy
8:53 PM 43.0 °F 37.7 °F 26.1 °F 51% 30.16 in 10.0 mi NNE 9.2 mph - N/A   Overcast
9:53 PM 42.1 °F 38.4 °F 26.1 °F 53% 30.17 in 10.0 mi NNE 5.8 mph - N/A   Mostly Cloudy
10:53 PM 36.0 °F 30.3 °F 27.0 °F 70% 30.17 in 10.0 mi NNW 6.9 mph - N/A   Clear